Latest Weather Observations for Dennes Point

IDT60901

Issued at 6:05 am EDT Friday 31 October 2014 (issued every 10 minutes, with the page automatically refreshed every 10 minutes)

About weather observations | Map of Hobart area stations | Latest observations for Hobart area | Other Formats
Station Details ID: 094255 Name: DENNES POINT Lat: -43.06 Lon: 147.36 Height: 5.67 m
Data from the previous 72 hours. | See also: Recent months at Dennes Point
Date/Time
EDT
Tmp

°C
App
Tmp
°C
Dew
Point
°C
Rel
Hum
%
Delta-T

°C
Wind Press
QNH
hPa
Press
MSL
hPa
Rain
since
9 am
mm
Dir
 
Spd
km/h
Gust
km/h
Spd
kts
Gust
kts
31/06:00am 13.0 11.3 8.3 73 2.3 NNW 7 11 4 6 1004.5 1004.5 0.4
31/05:30am 13.0 10.6 8.5 74 2.2 NNW 11 13 6 7 1004.7 1004.7 0.4
31/05:00am 13.2 10.1 8.7 74 2.3 NNW 15 19 8 10 1004.9 1004.9 0.4
31/04:30am 13.3 10.9 8.8 74 2.3 N 11 19 6 10 1005.1 1005.1 0.4
31/04:00am 13.2 10.4 8.5 73 2.4 NNW 13 15 7 8 1005.4 1005.4 0.4
31/03:30am 13.1 10.3 8.6 74 2.2 NNW 13 17 7 9 1005.7 1005.7 0.4
31/03:00am 13.0 10.6 8.7 75 2.2 NNW 11 13 6 7 1005.8 1005.8 0.4
31/02:30am 13.0 10.6 8.5 74 2.2 N 11 15 6 8 1006.2 1006.2 0.4
31/02:00am 12.9 10.4 8.2 73 2.3 NNW 11 13 6 7 1006.6 1006.6 0.4
31/01:30am 12.9 10.5 8.6 75 2.1 NNW 11 15 6 8 1007.0 1007.0 0.4
31/01:00am 12.8 10.7 8.3 74 2.2 NNW 9 11 5 6 1007.5 1007.5 0.4
31/12:30am 12.7 10.6 8.2 74 2.2 NNW 9 11 5 6 1007.8 1007.8 0.4
31/12:00am 12.8 10.6 7.7 71 2.5 NNW 9 13 5 7 1008.1 1008.1 0.4
 
Date/Time
EDT
Tmp

°C
App
Tmp
°C
Dew
Point
°C
Rel
Hum
%
Delta-T

°C
Wind Press
QNH
hPa
Press
MSL
hPa
Rain
since
9 am
mm
Dir
 
Spd
km/h
Gust
km/h
Spd
kts
Gust
kts
30/11:30pm 12.8 10.1 7.5 70 2.6 WNW 11 15 6 8 1008.0 1008.0 0.4
30/11:00pm 13.3 10.2 7.3 67 2.9 NW 13 22 7 12 1008.2 1008.2 0.4
30/10:30pm 13.4 10.1 6.5 63 3.3 WNW 13 15 7 8 1008.5 1008.5 0.4
30/10:00pm 13.3 10.8 6.4 63 3.3 NNW 9 13 5 7 1008.5 1008.5 0.4
30/09:30pm 13.2 10.2 5.9 61 3.4 WNW 11 19 6 10 1008.6 1008.6 0.4
30/09:00pm 11.9 9.9 6.4 69 2.6 W 6 9 3 5 1008.5 1008.5 0.4
30/08:30pm 12.4 10.9 6.7 68 2.7 W 4 6 2 3 1008.4 1008.4 0.4
30/08:00pm 12.8 10.8 6.2 64 3.1 W 6 7 3 4 1008.2 1008.2 0.4
30/07:30pm 14.0 11.7 5.9 58 3.8 NW 7 13 4 7 1008.0 1008.0 0.4
30/07:00pm 14.2 9.9 6.8 61 3.6 W 19 22 10 12 1007.7 1007.7 0.4
30/06:30pm 14.1 11.4 7.4 64 3.3 NW 11 19 6 10 1007.6 1007.6 0.4
30/06:00pm 14.3 8.9 6.2 58 3.9 W 24 32 13 17 1007.6 1007.6 0.4
30/05:30pm 14.4 8.8 7.0 61 3.6 W 26 43 14 23 1007.5 1007.5 0.4
30/05:00pm 14.5 8.8 6.8 60 3.8 WSW 26 32 14 17 1007.5 1007.5 0.4
30/04:30pm 14.7 9.7 6.3 57 4.0 W 22 30 12 16 1007.3 1007.3 0.4
30/04:00pm 14.5 8.9 7.3 62 3.5 W 26 33 14 18 1007.4 1007.4 0.4
30/03:30pm 14.2 8.6 7.3 63 3.4 W 26 37 14 20 1007.3 1007.3 0.4
30/03:00pm 14.2 9.8 7.5 64 3.3 SW 20 37 11 20 1007.5 1007.5 0.4
30/02:30pm 12.9 11.7 9.7 81 1.6 ENE 6 7 3 4 1007.1 1007.1 0.4
30/02:00pm 12.9 9.9 9.4 79 1.8 E 15 17 8 9 1007.0 1007.0 0.4
30/01:30pm 13.2 11.5 10.0 81 1.6 E 9 13 5 7 1007.0 1007.0 0.4
30/01:00pm 12.5 10.6 10.4 87 1.1 E 11 17 6 9 1007.4 1007.4 0.4
30/12:30pm 12.3 9.5 10.0 86 1.2 ESE 15 19 8 10 1007.3 1007.3 0.2
30/12:00pm 12.0 8.8 10.1 88 1.0 E 17 22 9 12 1007.4 1007.4 0.2
30/11:30am 12.9 10.8 11.1 89 0.9 E 13 17 7 9 1007.6 1007.6 0.2
30/11:00am 12.0 11.1 10.6 91 0.7 SE 6 9 3 5 1007.9 1007.9 0.0
30/10:30am 11.9 9.5 10.0 88 1.0 SE 13 19 7 10 1007.7 1007.7 0.0
30/10:00am 12.7 9.4 9.5 81 1.6 ESE 17 22 9 12 1007.4 1007.4 0.0
30/09:30am 13.9 11.8 8.3 69 2.8 W 9 15 5 8 1007.2 1007.2 0.0
30/09:00am 14.1 10.1 8.1 67 3.0 W 19 22 10 12 1007.0 1007.0 0.0
30/08:30am 14.0 10.9 7.3 64 3.3 WNW 13 19 7 10 1007.0 1007.0 0.0
30/08:00am 14.2 11.2 7.7 65 3.2 W 13 19 7 10 1007.0 1007.0 0.0
30/07:30am 13.6 10.9 7.4 66 3.0 WSW 11 19 6 10 1006.8 1006.8 0.0
30/07:00am 12.7 10.9 7.8 72 2.4 WSW 7 15 4 8 1006.6 1006.6 0.0
30/06:30am 12.6 10.3 7.5 71 2.5 NW 9 13 5 7 1006.2 1006.2 0.0
30/06:00am 12.7 9.4 8.0 73 2.3 NNW 15 20 8 11 1005.5 1005.5 0.0
30/05:30am 13.1 11.3 7.1 67 2.9 NNW 6 15 3 8 1005.9 1005.9 0.0
30/05:00am 12.8 10.5 7.3 69 2.7 NNW 9 15 5 8 1006.0 1006.0 0.0
30/04:30am 12.8 10.1 7.5 70 2.6 NW 11 17 6 9 1006.0 1006.0 0.0
30/04:00am 12.9 11.0 6.9 67 2.9 W 6 9 3 5 1006.1 1006.1 0.0
30/03:30am 13.1 11.2 6.7 65 3.1 WNW 6 9 3 5 1005.9 1005.9 0.0
30/03:00am 13.1 7.4 6.5 64 3.2 W 26 33 14 18 1006.0 1006.0 0.0
30/02:30am 12.9 7.8 6.0 63 3.3 WNW 22 32 12 17 1005.8 1005.8 0.0
30/02:00am 13.2 8.8 6.5 64 3.2 WNW 19 30 10 16 1006.0 1006.0 0.0
30/01:30am 12.7 10.0 7.4 70 2.6 WNW 11 15 6 8 1006.1 1006.1 0.0
30/01:00am 13.0 10.3 7.2 68 2.8 W 11 15 6 8 1006.6 1006.6 0.0
30/12:30am 13.3 9.4 6.9 65 3.1 WNW 17 24 9 13 1006.4 1006.4 0.0
30/12:00am 13.5 9.0 7.1 65 3.1 WNW 20 32 11 17 1006.3 1006.3 0.0
 
Date/Time
EDT
Tmp

°C
App
Tmp
°C
Dew
Point
°C
Rel
Hum
%
Delta-T

°C
Wind Press
QNH
hPa
Press
MSL
hPa
Rain
since
9 am
mm
Dir
 
Spd
km/h
Gust
km/h
Spd
kts
Gust
kts
29/11:30pm 13.0 9.6 7.5 69 2.7 WNW 15 20 8 11 1006.4 1006.4 0.0
29/11:00pm 13.4 9.2 7.4 67 2.9 WSW 19 26 10 14 1006.7 1006.7 0.0
29/10:30pm 13.7 10.1 6.8 63 3.3 WNW 15 26 8 14 1006.7 1006.7 0.0
29/10:00pm 13.7 9.2 7.0 64 3.3 WNW 20 28 11 15 1006.6 1006.6 0.0
29/09:30pm 13.9 9.0 7.0 63 3.4 WNW 22 33 12 18 1006.4 1006.4 0.0
29/09:00pm 14.2 8.2 7.0 62 3.5 WNW 28 37 15 20 1006.4 1006.4 0.0
29/08:30pm 14.7 7.3 6.8 59 3.8 WNW 35 46 19 25 1006.0 1006.0 0.0
29/08:01pm 14.8 7.5 7.4 61 3.6 W 35 56 19 30 1005.7 1005.7 0.0
29/08:00pm 14.7 7.0 7.0 60 3.8 W 37 56 20 30 1005.7 1005.7 0.0
29/07:42pm 15.2 7.1 7.0 58 4.0 W 39 63 21 34 1005.5 1005.5 0.0
29/07:30pm 15.1 7.5 7.4 60 3.8 WNW 37 50 20 27 1005.4 1005.4 0.0
29/07:06pm 15.5 8.3 7.5 59 4.0 WNW 35 54 19 29 1005.4 1005.4 0.0
29/07:00pm 15.7 8.4 7.2 57 4.2 WNW 35 52 19 28 1005.4 1005.4 0.0
29/06:37pm 16.1 9.1 6.8 54 4.6 WNW 33 54 18 29 1005.3 1005.3 0.0
29/06:30pm 16.4 8.2 6.5 52 4.8 W 39 52 21 28 1005.4 1005.4 0.0
29/06:00pm 16.8 9.1 7.2 53 4.8 WNW 37 56 20 30 1005.4 1005.4 0.0
29/05:50pm 17.2 10.4 7.0 51 5.1 W 32 56 17 30 1005.5 1005.5 0.0
29/05:30pm 17.8 11.5 7.2 50 5.3 W 30 43 16 23 1005.4 1005.4 0.0
29/05:09pm 17.8 10.9 7.2 50 5.3 W 33 52 18 28 1005.5 1005.5 0.0
29/05:00pm 18.0 10.2 6.5 47 5.7 W 37 52 20 28 1005.4 1005.4 0.0
29/04:30pm 17.9 10.2 7.0 49 5.4 W 37 56 20 30 1005.2 1005.2 0.0
29/04:00pm 18.0 9.0 7.1 49 5.5 W 44 67 24 36 1005.2 1005.2 0.0
29/03:30pm 17.4 7.6 6.9 50 5.2 W 48 67 26 36 1005.3 1005.3 0.0
29/03:03pm 17.4 10.2 7.7 53 4.9 W 35 56 19 30 1005.4 1005.4 0.0
29/03:00pm 17.5 9.8 7.0 50 5.3 W 37 56 20 30 1005.4 1005.4 0.0
29/02:32pm 16.9 8.0 7.0 52 4.9 WNW 43 72 23 39 1005.7 1005.7 0.0
29/02:30pm 17.1 8.3 7.2 52 4.9 WNW 43 59 23 32 1005.9 1005.9 0.0
29/02:00pm 17.4 10.5 6.6 49 5.4 W 32 50 17 27 1006.1 1006.1 0.0
29/01:31pm 17.2 9.7 6.1 48 5.4 WNW 35 56 19 30 1006.5 1006.5 0.0
29/01:30pm 17.2 9.7 6.1 48 5.4 WNW 35 52 19 28 1006.6 1006.6 0.0
29/01:01pm 16.4 10.3 6.5 52 4.8 WNW 28 52 15 28 1006.8 1006.8 0.0
29/01:00pm 16.5 10.7 6.1 50 5.1 WNW 26 52 14 28 1006.8 1006.8 0.0
29/12:30pm 15.9 10.2 6.6 54 4.5 W 26 43 14 23 1007.2 1007.2 0.0
29/12:00pm 15.8 12.4 7.6 58 4.1 WNW 15 22 8 12 1007.5 1007.5 0.0
29/11:30am 15.1 10.7 6.7 57 4.1 WNW 19 30 10 16 1007.8 1007.8 0.0
29/11:00am 14.2 11.3 6.3 59 3.8 WNW 11 19 6 10 1008.2 1008.2 0.0
29/10:30am 13.0 11.3 5.7 61 3.4 NW 4 7 2 4 1008.6 1008.6 0.0
29/10:00am 12.3 10.2 5.7 64 3.1 N 6 13 3 7 1008.9 1008.9 0.0
29/09:30am 11.7 8.9 5.1 64 3.0 N 9 15 5 8 1009.1 1009.1 0.0
29/09:00am 11.6 9.0 4.3 61 3.3 NNW 7 13 4 7 1009.0 1009.0 1.6
29/08:30am 11.2 8.2 4.0 61 3.2 N 9 13 5 7 1009.2 1009.2 1.6
29/08:00am 11.2 8.2 4.0 61 3.2 N 9 15 5 8 1009.0 1009.0 1.6
29/07:30am 11.0 6.4 3.8 61 3.2 NNW 17 22 9 12 1008.7 1008.7 1.6
29/07:00am 10.6 6.5 4.3 65 2.8 NW 15 26 8 14 1008.9 1008.9 1.6
29/06:30am 10.0 5.4 3.5 64 2.8 NW 17 24 9 13 1008.7 1008.7 1.6
29/06:11am 10.0 2.8 3.1 62 3.0 W 30 48 16 26 1008.2 1008.2 1.6
29/06:00am 10.1 3.4 3.8 65 2.8 W 28 44 15 24 1008.1 1008.1 1.6
29/05:30am 9.2 3.8 2.5 63 2.8 W 20 30 11 16 1007.9 1007.9 1.6
29/05:00am 8.8 3.5 2.8 66 2.5 WSW 20 30 11 16 1008.0 1008.0 1.6
29/04:30am 9.2 3.2 3.4 67 2.5 W 24 37 13 20 1007.8 1007.8 1.6
29/04:00am 9.0 2.0 1.9 61 3.0 WSW 28 37 15 20 1007.7 1007.7 1.6
29/03:30am 8.8 2.1 1.5 60 3.0 WSW 26 33 14 18 1007.4 1007.4 1.6
29/03:00am 8.6 1.8 1.1 59 3.1 WSW 26 35 14 19 1007.5 1007.5 1.6
29/02:30am 8.4 2.2 -0.1 55 3.3 SW 22 32 12 17 1007.7 1007.7 1.6
29/02:00am 8.2 2.3 -1.1 52 3.6 WSW 20 30 11 16 1007.8 1007.8 1.6
29/01:30am 8.4 3.2 0.4 57 3.2 W 17 26 9 14 1007.8 1007.8 1.6
29/01:00am 7.3 4.7 1.2 65 2.5 SSE 4 7 2 4 1007.5 1007.5 1.6
29/12:30am 7.7 3.7 2.8 71 2.1 SW 13 22 7 12 1007.3 1007.3 1.6
29/12:00am 7.9 0.7 3.0 71 2.1 WSW 30 50 16 27 1006.5 1006.5 1.6
 
Date/Time
EDT
Tmp

°C
App
Tmp
°C
Dew
Point
°C
Rel
Hum
%
Delta-T

°C
Wind Press
QNH
hPa
Press
MSL
hPa
Rain
since
9 am
mm
Dir
 
Spd
km/h
Gust
km/h
Spd
kts
Gust
kts
28/11:30pm 7.9 -0.6 3.2 72 2.0 W 37 48 20 26 1005.6 1005.6 1.6
28/11:00pm 7.5 -0.4 4.5 81 1.3 WSW 35 50 19 27 1004.8 1004.8 1.6
28/10:30pm 7.8 -2.7 3.8 76 1.7 WSW 48 69 26 37 1004.1 1004.1 1.6
28/10:01pm 7.8 -1.6 4.2 78 1.6 WSW 43 65 23 35 1003.8 1003.8 1.6
28/10:00pm 7.7 -1.4 4.1 78 1.6 WSW 41 57 22 31 1003.8 1003.8 1.6
28/09:48pm 7.4 -3.0 4.0 79 1.5 WSW 48 69 26 37 1003.6 1003.6 1.6
28/09:30pm 7.9 -4.1 4.5 79 1.5 WSW 57 74 31 40 1003.0 1002.9 1.6
28/09:00pm 8.0 -3.8 4.6 79 1.5 W 56 76 30 41 1002.4 1002.3 1.6
28/08:31pm 8.2 -3.1 3.7 73 1.9 W 52 72 28 39 1001.5 1001.5 1.6
28/08:30pm 8.2 -3.5 3.5 72 2.0 W 54 72 29 39 1001.3 1001.3 1.6
28/08:08pm 7.8 -2.9 4.7 81 1.4 WSW 50 70 27 38 1001.0 1001.0 1.6
28/08:00pm 7.7 -4.1 4.7 81 1.3 WSW 56 69 30 37 1000.8 1000.8 1.6
28/07:30pm 8.1 -2.2 4.7 79 1.5 WSW 48 69 26 37 1000.1 1000.1 1.4
28/07:00pm 8.1 -3.9 3.9 75 1.8 W 56 87 30 47 998.8 998.8 1.2
28/06:34pm 10.6 -0.5 2.4 57 3.5 W 50 69 27 37 997.7 997.7 0.8
28/06:30pm 10.8 -1.1 1.9 54 3.8 W 54 70 29 38 997.5 997.5 0.8
28/06:02pm 10.6 -1.1 1.2 52 3.9 W 52 72 28 39 997.0 997.0 0.8
28/06:00pm 10.7 -0.4 2.3 56 3.6 W 50 65 27 35 997.0 997.0 0.8
28/05:48pm 11.0 1.2 2.3 55 3.7 W 43 56 23 30 996.9 996.9 0.8
28/05:30pm 10.6 -3.5 1.4 53 3.8 W 65 91 35 49 996.1 996.1 0.8
28/05:01pm 10.5 -1.0 2.4 57 3.5 W 52 70 28 38 995.7 995.7 0.8
28/05:00pm 10.4 -1.4 2.5 58 3.4 W 54 70 29 38 995.8 995.8 0.8
28/04:30pm 10.9 -1.4 3.0 58 3.4 WSW 57 76 31 41 995.0 995.0 0.8
28/04:00pm 12.3 -0.7 1.3 47 4.7 WSW 59 83 32 45 994.1 994.1 0.8
28/03:30pm 12.7 -2.4 0.1 42 5.2 W 69 93 37 50 993.4 993.4 0.8
28/03:00pm 12.1 -2.3 1.7 49 4.5 W 67 96 36 52 993.2 993.2 0.8
28/02:30pm 9.5 -5.1 2.8 63 2.9 WSW 69 93 37 50 993.3 993.3 0.8
28/02:19pm 10.0 -2.4 2.4 59 3.2 W 57 83 31 45 992.7 992.7 0.8
28/02:12pm 10.1 -2.1 3.8 65 2.8 W 57 70 31 38 992.8 992.8 0.8
28/02:07pm 9.4 1.6 5.0 74 2.0 WSW 35 72 19 39 993.3 993.3 0.6
28/02:06pm 9.8 2.8 6.9 82 1.4 WSW 33 52 18 28 993.6 993.6 0.6
28/02:00pm 7.7 0.3 4.8 82 1.3 SW 33 46 18 25 994.2 994.2 0.4
28/01:58pm 7.2 -0.7 4.2 81 1.3 SW 35 46 19 25 994.2 994.2 0.4
28/01:30pm 11.5 -2.9 1.7 51 4.2 WSW 67 96 36 52 992.7 992.7 0.4
28/01:27pm 11.0 -3.9 2.3 55 3.7 WSW 70 96 38 52 992.6 992.6 0.4
28/01:09pm 11.8 0.9 1.2 48 4.5 W 48 72 26 39 992.5 992.5 0.4
28/01:00pm 11.2 1.0 3.0 57 3.6 W 46 63 25 34 992.9 992.9 0.4
28/12:53pm 11.1 -1.3 2.4 55 3.7 W 57 78 31 42 992.9 992.9 0.4
28/12:49pm 11.0 -3.4 1.8 53 3.9 W 67 78 36 42 992.7 992.7 0.4
28/12:30pm 10.2 0.2 2.3 58 3.4 W 44 70 24 38 993.0 993.0 0.4
28/12:00pm 8.1 -4.3 2.6 68 2.3 W 57 76 31 41 992.6 992.6 0.4
28/11:58am 8.2 -4.0 3.7 73 1.9 W 57 76 31 41 992.8 992.8 0.4
28/11:54am 8.5 -8.3 2.3 65 2.6 W 80 102 43 55 993.0 993.0 0.4
28/11:50am 10.4 -0.2 0.7 51 4.0 W 46 83 25 45 992.7 992.7 0.4
28/11:30am 10.5 1.9 2.4 57 3.5 W 37 59 20 32 992.1 992.1 0.4
28/11:00am 8.6 -1.7 4.8 77 1.7 W 48 67 26 36 992.7 992.7 0.4
28/10:42am 8.7 -1.2 2.7 66 2.5 W 44 63 24 34 993.1 993.1 0.4
28/10:30am 8.5 -1.5 4.3 75 1.8 W 46 54 25 29 993.0 993.0 0.4
28/10:09am 8.2 -4.7 1.8 64 2.6 W 59 80 32 43 993.2 993.2 0.4
28/10:08am 8.7 -4.2 1.8 62 2.9 W 59 76 32 41 993.0 993.0 0.4
28/10:02am 9.3 1.1 2.9 64 2.7 W 35 61 19 33 992.8 992.8 0.4
28/10:00am 9.0 1.2 2.6 64 2.7 W 33 50 18 27 992.8 992.8 0.4
28/09:39am 8.6 -0.4 2.6 66 2.5 W 39 57 21 31 993.0 993.0 0.4
28/09:30am 8.8 -2.1 3.4 69 2.3 W 50 63 27 34 992.9 992.9 0.4
28/09:00am 7.2 -2.9 4.0 80 1.4 W 46 65 25 35 993.1 993.1 6.8
28/08:57am 7.2 -2.6 3.6 78 1.5 W 44 65 24 35 992.9 992.9 6.8
28/08:30am 8.2 0.6 2.7 68 2.3 W 32 44 17 24 992.0 992.0 6.4
28/08:00am 7.5 -2.0 3.7 77 1.6 W 43 63 23 34 991.9 991.9 6.4
28/07:31am 8.4 0.5 2.2 65 2.6 WNW 33 56 18 30 991.9 991.9 6.2
28/07:30am 8.5 0.7 2.7 67 2.4 WNW 33 48 18 26 992.0 992.0 6.2
28/07:01am 9.1 0.1 2.4 63 2.8 W 39 59 21 32 991.4 991.4 6.2
28/07:00am 9.2 0.1 2.1 61 3.0 W 39 56 21 30 991.4 991.4 6.2
28/06:32am 10.1 1.8 2.2 58 3.3 W 35 56 19 30 990.7 990.7 6.2
28/06:30am 9.9 1.2 2.0 58 3.3 W 37 56 20 30 990.7 990.7 6.2
28/06:24am 9.9 1.5 1.3 55 3.6 W 35 56 19 30 990.7 990.7 6.2

Latest Capital City Observations: Canberra | Sydney | Melbourne | Brisbane | Adelaide | Perth | Hobart | Darwin

Other Formats:

Comma delimited format used in spreadsheet applications
http://www.bom.gov.au/fwo/IDT60901/IDT60901.94988.axf

JavaScript Object Notation format (JSON) in row-major order
http://www.bom.gov.au/fwo/IDT60901/IDT60901.94988.json